Location: G�ndlingen
(48.0142°N, 7.6396°E)
Time: 17:53:48
(UTC+00:00)

NOSS 3-4 (C) - Pass Details

Date: 05 July 2020
Orbit: 891 x 1321 km, 63.4° (Epoch: 12 July)

Event Time Altitude Azimuth Distance (km) Brightness Sun altitude
Rises 22:05:11 0° 318° (NW) 3,795 7.9 -16.5°
Reaches altitude 10° 22:07:42 10° 319° (NW) 2,897 7.1 -16.7°
Maximum altitude 22:14:39 87° 51° (NE) 1,157 3.8 -17.1°
Enters shadow 22:19:54 22° 139° (SE) 2,356 4.9 -17.4°
